Regional Weather Roundup
Issued by NWS

Home | Current Version | Previous Version | Text Only | Print | Product List | Glossary Off
Versions: 1 2 3 4 5 6 7 8 9 10 11 12 13 14 15 16 17 18 19 20 21 22 23 24 25 26 27 28 29 30 31 32 33 34 35 36 37 38 39 40 41 42 43 44 45 46 47 48 49 50

000
ASUS43 KLSX 240207
RWRMO

WEATHER SUMMARY FOR MISSOURI
NATIONAL WEATHER SERVICE SPRINGFIELD MO
900 PM CDT TUE AUG 23 2016

NOTE: "FAIR" INDICATES FEW OR NO CLOUDS BELOW 12,000 FEET WITH NO
       SIGNIFICANT WEATHER AND/OR OBSTRUCTIONS TO VISIBILITY.
       CURRENT SKY AND/OR WEATHER CONDITIONS ARE NOT AVAILABLE FOR
       CHILLICOTHE AND FARMINGTON.

MOZ001>031-035>038-043-044-053-054-240300-
...NORTHERN AND WESTERN MISSOURI...

CITY           SKY/WX    TMP DP  RH WIND       PRES   REMARKS
KANSAS CTY INT PTCLDY    80  70  71 S15       29.92F
KANSAS C DTWN  CLEAR     82  71  69 S13G22    29.92F
LEE`S SUMMIT   MOCLDY    81  72  74 S13       29.96F
ST JOSEPH      MOCLDY    81  72  74 S13G21    29.90F
CHILLICOTHE      N/A     79  73  82 S7        29.96S
KIRKSVILLE     CLOUDY    74  71  91 S12       30.00S

$$
MOZ066>068-077>081-088>096-101>105-240300-
...SOUTHWEST MISSOURI...

CITY           SKY/WX    TMP DP  RH WIND       PRES   REMARKS
SPRINGFIELD    PTCLDY    79  70  74 S13       30.05S
JOPLIN         CLEAR     80  69  69 S15       30.01R
BRANSON        PTCLDY    75  72  88 S6        30.10S

$$
MOZ032>034-039>042-045>050-055>058-069>072-240300-
...CENTRAL MISSOURI...

CITY           SKY/WX    TMP DP  RH WIND       PRES   REMARKS
COLUMBIA       CLOUDY    75  74  96 SE8       30.03F
JEFFERSON CITY CLOUDY    75  73  93 SE6       30.02F
ROLLA          CLOUDY    76  73  91 S12       30.06S
SEDALIA        CLEAR     78  74  87 SE10      30.01F
WHITEMAN AFB   PTCLDY    78  76  96 S8        29.99R
OSAGE BEACH    PTCLDY    77  74  90 S5        30.05S

$$
MOZ051-052-059>065-240300-
...EAST CENTRAL MISSOURI...

CITY           SKY/WX    TMP DP  RH WIND       PRES   REMARKS
ST LOUIS INTL  MOCLDY    76  69  79 SE10      30.10R
SPIRIT OF STL  MOCLDY    75  72  90 E6        30.07R
ST CHARLES     CLOUDY    72  72 100 E6        30.08R

$$
MOZ072>076-082>087-097>100-106>115-240300-
...SOUTH CENTRAL AND SOUTHEAST MISSOURI...

CITY           SKY/WX    TMP DP  RH WIND       PRES   REMARKS
CAPE GIRARDEAU CLEAR     76  72  87 SE7       30.11S
FARMINGTON     CLOUDY    74  73  97 S5        30.12R
POPLAR BLUFF   CLOUDY    78  74  87 SE6       30.10R
WEST PLAINS    CLEAR     77  70  79 S6        30.13R

$$



USA.gov is the U.S. government's official web portal to all federal, state and local government web resources and services.